Regional Weather Roundup
Issued by NWS

Home | Current Version | Previous Version | Graphics & Text | Print | Product List | Glossary On
Versions: 1 2 3 4 5 6 7 8 9 10 11 12 13 14 15 16 17 18 19 20 21 22 23 24 25 26 27 28 29 30 31 32 33 34 35 36 37 38 39 40 41 42 43 44 45 46 47 48 49 50
000
ASUS44 KMEG 192000
RWRTN
TENNESSEE HOURLY STATE WEATHER ROUNDUP
NATIONAL WEATHER SERVICE MEMPHIS TN
200 PM CST THU JAN 19 2017

TNZ002-004-019-021-049-052-054-088>092-192100-
WEST TENNESSEE

CITY           SKY/WX    TMP DP  RH WIND       PRES   REMARKS
MEMPHIS INTL   LGT RAIN  64  62  93 SE20G28   29.70F
NWS MEMPHIS      N/A     64 N/A N/A MISG        N/A
JACKSON        CLOUDY    63  61  93 S9        29.76F
DYERSBURG      CLOUDY    61  57  88 S10       29.72F
UNION CITY     CLOUDY   N/A N/A N/A CALM      29.74F
PARIS          CLOUDY    52  52 100 CALM      29.78F
$$

TNZ008-025-027-028-033-062-065-066-192100-
NORTH MIDDLE TENNESSEE

CITY           SKY/WX    TMP DP  RH WIND       PRES   REMARKS
NASHVILLE      LGT RAIN  56  54  93 SE6       29.84F FOG
CLARKSVILLE    LGT RAIN  54  52  93 SE9       29.81F FOG
SMYRNA         LGT RAIN  56  55  97 S3        29.85F FOG
CROSSVILLE     CLOUDY    58  51  78 SE7       29.91F
$$

TNZ061-075-076-078-094-096-097-192100-
SOUTH MIDDLE TENNESSEE

CITY           SKY/WX    TMP DP  RH WIND       PRES   REMARKS
TULLAHOMA      CLOUDY    57  57 100 SE8       29.86F
WINCHESTER     CLOUDY    59  55  88 SE9       29.87F
MCMINNVILLE    CLOUDY    66  57  72 S8        29.85F
COLUMBIA       CLOUDY   N/A N/A N/A CALM      29.81S
SHELBYVILLE    CLOUDY    61  61 100 SE6       29.85F
$$

TNZ017-018-042-046-047-192100-
NORTHEAST TENNESSEE

CITY           SKY/WX    TMP DP  RH WIND       PRES   REMARKS
TRI CITIES     CLOUDY    62  24  23 CALM      29.96F
$$

TNZ012-013-036-069-073-074-192100-
CENTRAL EAST TENNESSEE

CITY           SKY/WX    TMP DP  RH WIND       PRES   REMARKS
KNOXVILLE      CLOUDY    57  44  62 NE3       29.94F
OAK RIDGE      CLOUDY    56  44  64 VRB3      29.96F
GATLINBURG     CLOUDY    54  43  66 CALM      29.96F
$$

TNZ083-085-099-192100-
SOUTHEAST TENNESSEE

CITY           SKY/WX    TMP DP  RH WIND       PRES   REMARKS
CHATTANOOGA    CLOUDY    59  44  57 NW6       29.92F
$$

SKY/WX REPORTED AS FAIR MEANS FEW OR NO CLOUDS BELOW
12 THOUSAND FEET.




USA.gov is the U.S. government's official web portal to all federal, state and local government web resources and services.